Content
SEND FEEDBACK

Daily
Averages
Monthly
Summary
United Kingdom

LONDON, ENGLAND


Home > Europe > United Kingdom > England
Elevation: 61 meters     Latitude: 51 09N     Longitude: 000 11W

WEATHER
 
SELECT A DAY
Number of Records: 298,576;   Date Range: 7/1/96 - 11/21/14
 
SHARE

PRINT THIS DATA

[ ← Previous Day ]
WEATHER ALMANAC - 19 JANUARY, 2013
[ Next Day → ]
[ °F ]   °C
Weather ElementAverageHighLow
Temperature-0.1 °C1 °C (11:20 am)-1 °C (12:50 am)
Dewpoint-2.5 °C-2 °C (12:50 am)-4 °C (9:50 pm)
Humidity84.3 %93 % (12:50 am)75 % (9:50 pm)
Barometer996.3 hPa997 hPa (9:20 am)995.3 hPa (1:20 am)
Wind Speed18 km/h24.1 km/h (2:50 pm)
Wind Gust40.7 km/h (1:50 pm)
Weather ElementAverage
Visibility6.8 km
Wind DirectionENE (51.9 °)

Weather ElementTotal
Precipitation---
Heating Degree Days18.3 (Base 18.3)
Averaged from 47 records on 19 January, 2013
WEATHER CONDITIONS BREAKOUT
WIND DIRECTION BREAKOUT
WEATHER BY HOUR - 19 JANUARY, 2013
[ °F ]   °C
Local TimeTemperatureDewpointHumidityBarometerVisibilityWind DirectionWind SpeedGust SpeedPrecipitationEventsConditions
12:50 AM-1 °C-2 °C93 %996.3 hPa3.1 kmENE (70°)14.8 km/hSnowLight Snow
1:20 AM-1 °C-2 °C93 %995.3 hPa3.1 kmENE (70°)14.8 km/hSnowLight Snow
1:50 AM-1 °C-2 °C93 %995.3 hPa3.1 kmENE (60°)14.8 km/hSnowLight Snow
2:20 AM-1 °C-2 °C93 %996.3 hPa4 kmENE (60°)16.7 km/hSnowLight Snow
2:50 AM-1 °C-2 °C93 %996.3 hPa5 kmENE (60°)16.7 km/hSnowLight Snow
3:20 AM-1 °C-2 °C93 %995.3 hPa5 kmENE (60°)16.7 km/hSnowLight Snow
3:50 AM-1 °C-2 °C93 %995.3 hPa5 kmENE (70°)18.5 km/hSnowLight Snow
4:20 AM-1 °C-2 °C93 %995.3 hPa5 kmENE (60°)18.5 km/hHaze
4:50 AM-1 °C-2 °C93 %995.3 hPa6 kmENE (70°)16.7 km/hMostly Cloudy
5:20 AM-1 °C-3 °C86 %995.3 hPa6 kmEast (80°)14.8 km/hMostly Cloudy
5:50 AM-1 °C-3 °C86 %995.3 hPa4 kmENE (70°)16.7 km/hHaze
6:20 AM-1 °C-3 °C86 %995.3 hPa6 kmENE (70°)14.8 km/hMostly Cloudy
6:50 AM0 °C-2 °C87 %995.3 hPa6 kmENE (70°)14.8 km/hMostly Cloudy
7:20 AM0 °C-3 °C80 %995.3 hPa6 kmENE (60°)18.5 km/hOvercast
7:50 AM0 °C-3 °C80 %995.3 hPa6.9 kmENE (60°)14.8 km/hOvercast
8:20 AM0 °C-2 °C87 %996.3 hPa6.9 kmENE (60°)13 km/hMostly Cloudy
8:50 AM0 °C-2 °C87 %996.3 hPa6.9 kmENE (70°)9.3 km/hMostly Cloudy
9:20 AM0 °C-2 °C87 %997 hPa6 kmENE (60°)11.1 km/hOvercast
9:50 AM0 °C-2 °C87 %997 hPa8 kmENE (60°)14.8 km/hMostly Cloudy
10:20 AM0 °C-2 °C87 %997 hPa6.9 kmENE (60°)18.5 km/hOvercast
10:50 AM0 °C-2 °C87 %996.3 hPa6.9 kmENE (60°)16.7 km/hOvercast
11:20 AM1 °C-2 °C81 %996.3 hPa6.9 kmENE (60°)16.7 km/hMostly Cloudy
11:50 AM1 °C-2 °C81 %996.3 hPa6 kmNE (50°)16.7 km/hOvercast
12:20 PM1 °C-2 °C81 %995.3 hPa6 kmNE (50°)16.7 km/h35.2 km/hOvercast
12:50 PM1 °C-2 °C81 %995.3 hPa5 kmENE (60°)16.7 km/hHaze
1:20 PM1 °C-2 °C81 %995.3 hPa5 kmNE (50°)16.7 km/hHaze
1:50 PM1 °C-2 °C81 %995.3 hPa5 kmENE (60°)22.2 km/h40.7 km/hRain-SnowLight Rain Showers
2:20 PM1 °C-2 °C81 %996.3 hPa6.9 kmNE (50°)22.2 km/hLight Drizzle
2:50 PM1 °C-2 °C81 %996.3 hPa9 kmNE (40°)24.1 km/hSnowLight Snow Grains
3:20 PM0 °C-2 °C87 %996.3 hPa9 kmNE (50°)18.5 km/hSnowLight Snow Grains
3:50 PM0 °C-2 °C87 %996.3 hPa6.9 kmNE (40°)20.4 km/hSnowLight Snow Grains
4:20 PM0 °C-2 °C87 %997 hPa6 kmNE (50°)16.7 km/hSnowLight Snow Grains
4:50 PM0 °C-2 °C87 %997 hPa6 kmENE (60°)16.7 km/hSnowLight Snow Grains
5:20 PM0 °C-2 °C87 %997 hPa6.9 kmNE (40°)22.2 km/hSnowLight Snow Grains
5:50 PM0 °C-3 °C80 %997 hPa6.9 kmNE (40°)18.5 km/hOvercast
6:20 PM0 °C-3 °C80 %997 hPa9 kmNE (40°)20.4 km/hOvercast
6:50 PM0 °C-3 °C80 %997 hPa8 kmNNE (30°)20.4 km/hMostly Cloudy
7:20 PM0 °C-3 °C80 %997 hPa9 kmNNE (30°)22.2 km/hMostly Cloudy
7:50 PM0 °C-3 °C80 %997 hPa9 kmNNE (30°)24.1 km/hMostly Cloudy
8:20 PM0 °C-3 °C80 %997 hPa9 kmNNE (30°)22.2 km/hMostly Cloudy
8:50 PM0 °C-3 °C80 %997 hPa9 kmNNE (30°)22.2 km/hMostly Cloudy
9:20 PM0 °C-3 °C80 %997 hPa9 kmNNE (30°)22.2 km/hMostly Cloudy
9:50 PM0 °C-4 °C75 %997 hPa10 kmNE (40°)20.4 km/hMostly Cloudy
10:20 PM0 °C-4 °C75 %997 hPa10 kmNNE (30°)20.4 km/hMostly Cloudy
10:50 PM0 °C-4 °C75 %997 hPa9 kmNNE (30°)20.4 km/hMostly Cloudy
11:20 PM0 °C-4 °C75 %997 hPa9 kmNNE (30°)18.5 km/hMostly Cloudy
11:50 PM0 °C-4 °C75 %997 hPa9 kmNNE (30°)18.5 km/hOvercast
Hourly data recorded from EGKK, located 0 kilometers away from London, England







STORIES FROM OUR PARTNERS